This is the latest recevied weather packets stored in our database for station/object N8TWM-13. If no packets are shown the sender has not sent any weather packets the latest 10 day(s).
| Time | Temp. | Humidity | Pressure | Rain* | Wind** | Luminosity | Snow |
|---|---|---|---|---|---|---|---|
| 1777730765 | 3.33° C | 88% | 1017.3 hPa | 0 mm | - | 39 W/m² | - |
| 1777730461 | 3.33° C | 89% | 1017.4 hPa | 0 mm | - | 73 W/m² | - |
| 1777730156 | 2.78° C | 89% | 1016.9 hPa | 0 mm | - | 62 W/m² | - |
| 1777729854 | 3.33° C | 90% | 1017 hPa | 0 mm | - | 101 W/m² | - |
| 1777729550 | 2.78° C | 90% | 1017.1 hPa | 0 mm | - | 72 W/m² | - |
| 1777729247 | 2.78° C | 90% | 1017.1 hPa | 0 mm | - | 82 W/m² | - |
| 1777728944 | 2.78° C | 90% | 1017 hPa | 0 mm | - | 66 W/m² | - |
| 1777728641 | 2.78° C | 91% | 1017 hPa | 0 mm | - | 38 W/m² | - |
| 1777728338 | 2.78° C | 91% | 1016.9 hPa | 0 mm | - | 44 W/m² | - |
| 1777728034 | 2.78° C | 91% | 1016.6 hPa | 0 mm | - | 40 W/m² | - |
| 1777727732 | 2.78° C | 91% | 1016.9 hPa | 0 mm | - | 35 W/m² | - |
| 1777727428 | 2.78° C | 91% | 1017 hPa | 0 mm | - | 33 W/m² | - |
| 1777727126 | 2.78° C | 91% | 1016.9 hPa | 0 mm | - | 31 W/m² | - |
| 1777726824 | 2.78° C | 91% | 1016.8 hPa | 0 mm | - | 46 W/m² | - |
| 1777726520 | 2.22° C | 91% | 1016.6 hPa | 0 mm | - | 62 W/m² | - |
| 1777726217 | 2.22° C | 91% | 1016.9 hPa | 0 mm | - | 76 W/m² | - |
| 1777725914 | 2.22° C | 91% | 1016.6 hPa | 0 mm | - | 82 W/m² | - |
| 1777725611 | 2.22° C | 91% | 1016.3 hPa | 0 mm | - | 78 W/m² | - |
| 1777725309 | 2.22° C | 91% | 1016.4 hPa | 0 mm | - | 76 W/m² | - |
| 1777725006 | 2.22° C | 91% | 1016.5 hPa | 0 mm | - | 107 W/m² | - |
| 1777724702 | 1.67° C | 91% | 1016.9 hPa | 0 mm | - | 107 W/m² | - |
| 1777724400 | 1.67° C | 91% | 1016.5 hPa | 0 mm | - | 96 W/m² | - |
| 1777724097 | 1.67° C | 91% | 1016.5 hPa | 0 mm | - | 53 W/m² | - |
| 1777723794 | 1.67° C | 90% | 1016.5 hPa | 0 mm | - | 62 W/m² | - |
| 1777723490 | 1.67° C | 90% | 1016.6 hPa | 0 mm | - | 69 W/m² | - |
* Rain latest hour (hover to see other rain measurements)
** Current wind speed in m/s (hover to see current wind gust speed)